sat.trackr.live / text

‹ back to catalog

STARLINK-6168

NORAD 57369 · 2023-099AT

PAYLOAD ACTIVE UNKNOWN

§ Identity

Operator
Country
US
Launch date
2023-07-16
Launch site
AFETR
Launch vehicle
Mass (kg)
RCS (m²)

Purposes: comms

External: N2YO · Heavens-Above · Gunter

§ Orbital elements

Epoch: 2026-09-20T14:04:38.634528Z

Period
93.88 min
Inclination
43.0001°
Eccentricity
0.0006652
Mean motion
15.33885941 rev/d
Perigee alt
459.7 km
Apogee alt
468.8 km
Semi-major
6,842.4 km
B*
9.1917e-4
RAAN
217.7936°
Arg perigee
160.4523°
Mean anomaly
199.6587°
Rev number
17,604

§ Raw data

STARLINK-61681 57369U 23099AT  26263.58655827  .00030639  00000+0  91917-3 0  99982 57369  43.0001 217.7936 0006652 160.4523 199.6587 15.33885941176045

JSON: /api/v1/satellites/57369 · /tle

For live sub-satellite position, see the globe view (requires WebGL).

§ Visibility from observer

Set your observer location to see the next 7 days of passes ≥ 10°. The values pass through the URL so the page stays shareable.

No JS? Fill the form by hand. The geolocation button needs JavaScript.